• In Moldova, Republic
  • List of Countries
  • For 7 days
  • Water Temperature
  • Satellite Maps
  • Weather Map
  • Weather Widgets
  • user-avatar
    Login

    Hourly Weather Nakhchivan

    Today, 25 April, Wednesday

    Time Temperature Precipitation Wind Pressure Humidity
    00:00 +15°C° 0 mm 1 mps 689 mmHg 46%
    01:00 +15°C° 0 mm 1 mps 689 mmHg 47%
    02:00 +14°C° 0 mm 1 mps 689 mmHg 49%
    03:00 +14°C° 0 mm 1 mps 689 mmHg 50%
    04:00 +14°C° 0 mm 1 mps 689 mmHg 50%
    05:00 +14°C° 0 mm 1 mps 689 mmHg 51%
    06:00 +14°C° 0 mm 1 mps 689 mmHg 51%
    07:00 +16°C° 0 mm 1 mps 689 mmHg 46%
    08:00 +18°C° 0 mm 1 mps 689 mmHg 41%
    09:00 +20°C° 0 mm 1 mps 690 mmHg 36%
    10:00 +21°C° 0 mm 1 mps 689 mmHg 33%
    11:00 +22°C° 0 mm 1 mps 689 mmHg 30%
    12:00 +23°C° 0 mm 1 mps 689 mmHg 28%
    13:00 +24°C° 0 mm 1 mps 689 mmHg 27%
    14:00 +24°C° 0 mm 2 mps 688 mmHg 25%
    15:00 +25°C° 0 mm 2 mps 688 mmHg 24%
    16:00 +24°C° 0 mm 2 mps 688 mmHg 25%
    17:00 +24°C° 0 mm 2 mps 688 mmHg 26%
    18:00 +23°C° 0 mm 2 mps 688 mmHg 27%
    19:00 +21°C° 0 mm 2 mps 688 mmHg 31%
    20:00 +20°C° 0 mm 2 mps 688 mmHg 34%
    21:00 +20°C° 0 mm 1 mps 688 mmHg 38%
    22:00 +18°C° 0 mm 2 mps 688 mmHg 40%
    23:00 +18°C° 0 mm 2 mps 688 mmHg 42%

    Tomorrow, 26 April, Thursday

    Time Temperature Precipitation Wind Pressure Humidity
    00:00 +17°C° 0 mm 2 mps 688 mmHg 44%
    01:00 +16°C° 0 mm 2 mps 688 mmHg 45%
    02:00 +16°C° 0 mm 1 mps 688 mmHg 46%
    03:00 +15°C° 0 mm 1 mps 688 mmHg 47%
    04:00 +15°C° 0 mm 1 mps 688 mmHg 48%
    05:00 +15°C° 0 mm 1 mps 688 mmHg 48%
    06:00 +16°C° 0 mm 1 mps 688 mmHg 48%
    07:00 +18°C° 0 mm 1 mps 689 mmHg 43%
    08:00 +20°C° 0 mm 1 mps 689 mmHg 38%
    09:00 +21°C° 0 mm 1 mps 689 mmHg 33%
    10:00 +22°C° 0 mm 1 mps 689 mmHg 30%
    11:00 +24°C° 0 mm 1 mps 689 mmHg 28%
    12:00 +25°C° 0 mm 2 mps 689 mmHg 26%
    13:00 +25°C° 0 mm 2 mps 689 mmHg 26%
    14:00 +26°C° 0 mm 2 mps 688 mmHg 25%
    15:00 +26°C° 0 mm 2 mps 688 mmHg 25%
    16:00 +26°C° 0.1 mm 2 mps 688 mmHg 27%
    17:00 +25°C° 0.1 mm 2 mps 688 mmHg 28%
    18:00 +25°C° 0.1 mm 2 mps 688 mmHg 30%
    19:00 +24°C° 0 mm 2 mps 688 mmHg 35%
    20:00 +21°C° 0 mm 2 mps 689 mmHg 39%
    21:00 +20°C° 0 mm 2 mps 689 mmHg 44%
    22:00 +19°C° 0 mm 2 mps 689 mmHg 47%
    23:00 +19°C° 0 mm 2 mps 689 mmHg 49%

    Day after tomorrow, 27 April, Friday

    Time Temperature Precipitation Wind Pressure Humidity
    00:00 +18°C° 0 mm 2 mps 689 mmHg 52%
    01:00 +18°C° 0 mm 2 mps 688 mmHg 53%
    02:00 +17°C° 0 mm 2 mps 688 mmHg 54%
    03:00 +17°C° 0 mm 2 mps 688 mmHg 55%
    04:00 +17°C° 0 mm 2 mps 688 mmHg 55%
    05:00 +18°C° 0 mm 1 mps 688 mmHg 54%
    06:00 +18°C° 0 mm 1 mps 688 mmHg 54%
    07:00 +20°C° 0 mm 1 mps 688 mmHg 49%
    08:00 +21°C° 0 mm 1 mps 689 mmHg 44%
    09:00 +22°C° 0 mm 1 mps 689 mmHg 38%
    10:00 +24°C° 0 mm 2 mps 688 mmHg 36%
    11:00 +25°C° 0 mm 2 mps 688 mmHg 34%
    12:00 +26°C° 0 mm 3 mps 688 mmHg 31%
    13:00 +26°C° 0.1 mm 3 mps 688 mmHg 32%
    14:00 +26°C° 0.1 mm 3 mps 687 mmHg 33%
    15:00 +26°C° 0.1 mm 4 mps 687 mmHg 33%
    16:00 +25°C° 0.3 mm 4 mps 687 mmHg 40%
    17:00 +22°C° 0.3 mm 4 mps 687 mmHg 47%
    18:00 +21°C° 0.3 mm 4 mps 687 mmHg 53%
    19:00 +20°C° 0.1 mm 4 mps 687 mmHg 55%
    20:00 +20°C° 0.1 mm 3 mps 687 mmHg 57%
    21:00 +19°C° 0.1 mm 2 mps 687 mmHg 60%
    22:00 +20°C° 0.1 mm 1 mps 687 mmHg 61%
    23:00 +19°C° 0.1 mm 1 mps 687 mmHg 63%

    28 April, Saturday

    Time Temperature Precipitation Wind Pressure Humidity
    00:00 +19°C° 0.1 mm 1 mps 686 mmHg 65%
    01:00 +19°C° 0.1 mm 1 mps 686 mmHg 66%
    02:00 +18°C° 0.1 mm 1 mps 686 mmHg 67%
    03:00 +18°C° 0.1 mm 1 mps 685 mmHg 69%
    04:00 +18°C° 0 mm 1 mps 685 mmHg 69%
    05:00 +18°C° 0 mm 1 mps 685 mmHg 68%
    06:00 +18°C° 0 mm 1 mps 685 mmHg 68%
    07:00 +19°C° 0 mm 1 mps 685 mmHg 64%
    08:00 +20°C° 0 mm 1 mps 686 mmHg 60%
    09:00 +20°C° 0 mm 1 mps 686 mmHg 56%
    10:00 +21°C° 0.1 mm 1 mps 686 mmHg 54%
    11:00 +21°C° 0.1 mm 2 mps 686 mmHg 51%
    12:00 +23°C° 0.1 mm 2 mps 686 mmHg 48%
    13:00 +23°C° 0.4 mm 2 mps 686 mmHg 49%
    14:00 +23°C° 0.4 mm 2 mps 685 mmHg 49%
    15:00 +23°C° 0.4 mm 2 mps 685 mmHg 50%
    16:00 +21°C° 0.3 mm 2 mps 685 mmHg 51%
    17:00 +21°C° 0.3 mm 2 mps 686 mmHg 53%
    18:00 +20°C° 0.3 mm 2 mps 686 mmHg 55%
    19:00 +20°C° 0.1 mm 2 mps 686 mmHg 57%
    20:00 +20°C° 0.1 mm 2 mps 687 mmHg 59%
    21:00 +19°C° 0.1 mm 2 mps 687 mmHg 61%
    22:00 +19°C° 0.1 mm 2 mps 687 mmHg 62%
    23:00 +18°C° 0.1 mm 2 mps 687 mmHg 64%

    29 April, Sunday

    Time Temperature Precipitation Wind Pressure Humidity
    00:00 +18°C° 0.1 mm 2 mps 688 mmHg 66%
    01:00 +17°C° 0 mm 2 mps 687 mmHg 68%
    02:00 +17°C° 0 mm 2 mps 687 mmHg 69%
    03:00 +18°C° 0 mm 1 mps 687 mmHg 70%
    04:00 +18°C° 0 mm 1 mps 688 mmHg 70%
    05:00 +16°C° 0 mm 1 mps 688 mmHg 70%
    06:00 +16°C° 0 mm 1 mps 688 mmHg 70%
    07:00 +18°C° 0.1 mm 1 mps 689 mmHg 66%
    08:00 +19°C° 0.1 mm 1 mps 689 mmHg 62%
    09:00 +20°C° 0.1 mm 1 mps 689 mmHg 58%
    10:00 +19°C° 0.1 mm 2 mps 689 mmHg 54%
    11:00 +20°C° 0.1 mm 2 mps 689 mmHg 50%
    12:00 +21°C° 0.1 mm 2 mps 689 mmHg 46%
    13:00 +23°C° 0.1 mm 2 mps 688 mmHg 43%
    14:00 +24°C° 0.1 mm 2 mps 688 mmHg 40%
    15:00 +25°C° 0.1 mm 3 mps 688 mmHg 38%
    16:00 +24°C° 0.1 mm 3 mps 688 mmHg 39%
    17:00 +24°C° 0.1 mm 3 mps 688 mmHg 41%
    18:00 +22°C° 0.1 mm 3 mps 688 mmHg 42%
    19:00 +21°C° 0 mm 3 mps 688 mmHg 46%
    20:00 +20°C° 0 mm 3 mps 688 mmHg 51%
    21:00 +19°C° 0 mm 2 mps 689 mmHg 55%
    22:00 +19°C° 0 mm 2 mps 689 mmHg 58%
    23:00 +18°C° 0 mm 2 mps 689 mmHg 60%

    30 April, Monday

    Time Temperature Precipitation Wind Pressure Humidity
    00:00 +18°C° 0 mm 2 mps 689 mmHg 62%
    01:00 +17°C° 0 mm 2 mps 689 mmHg 63%
    02:00 +17°C° 0 mm 2 mps 689 mmHg 65%
    03:00 +16°C° 0 mm 1 mps 689 mmHg 66%
    04:00 +16°C° 0 mm 1 mps 689 mmHg 66%
    05:00 +16°C° 0 mm 1 mps 689 mmHg 65%
    06:00 +16°C° 0 mm 1 mps 689 mmHg 64%
    07:00 +18°C° 0 mm 2 mps 690 mmHg 58%
    08:00 +19°C° 0 mm 2 mps 690 mmHg 51%
    09:00 +20°C° 0 mm 2 mps 690 mmHg 44%
    10:00 +21°C° 0 mm 2 mps 690 mmHg 40%
    11:00 +23°C° 0 mm 2 mps 690 mmHg 36%
    12:00 +25°C° 0 mm 3 mps 689 mmHg 31%
    13:00 +25°C° 0 mm 3 mps 689 mmHg 30%
    14:00 +26°C° 0 mm 3 mps 689 mmHg 28%
    15:00 +26°C° 0 mm 4 mps 688 mmHg 26%
    16:00 +26°C° 0 mm 4 mps 688 mmHg 27%
    17:00 +25°C° 0 mm 4 mps 688 mmHg 28%
    18:00 +25°C° 0 mm 4 mps 688 mmHg 29%
    19:00 +22°C° 0 mm 3 mps 689 mmHg 32%
    20:00 +21°C° 0 mm 3 mps 689 mmHg 34%
    21:00 +20°C° 0 mm 3 mps 689 mmHg 37%
    22:00 +19°C° 0 mm 2 mps 689 mmHg 38%
    23:00 +19°C° 0 mm 2 mps 689 mmHg 40%
    Show more